FW6209 Weather Reports


Display with metric or nautical units.
time (UTC)temp
F
wind
direction
speed
MPH
gust
MPH
rain 1hr
in
rain 24hr
in
rain mn
in
humidity
%
barometer
mb
20260506183826 67 300 0.0 5.0 0.00 0.00 0.00 55 1016.8
20260506183809 67 355 1.0 5.0 0.00 0.00 0.00 54 1016.8
20260506183052 66 0 1.0 5.0 0.00 0.00 0.00 56 1017.1
20260506182552 65 15 1.0 9.0 0.00 0.00 0.00 56 1017.1
20260506181825 65 13 1.0 9.0 0.00 0.00 0.00 56 1017.0
20260506181322 65 351 1.0 9.0 0.00 0.00 0.00 56 1017.0
20260506180824 65 211 1.0 9.0 0.00 0.00 0.00 56 1017.0
20260506180323 65 289 1.0 8.0 0.00 0.00 0.00 57 1017.1
20260506175823 66 269 1.0 7.0 0.00 0.00 0.00 57 1017.1
20260506175322 65 258 1.0 6.0 0.00 0.00 0.00 57 1017.0
20260506175052 65 285 1.0 6.0 0.00 0.00 0.00 58 1017.2
20260506174321 65 15 1.0 5.0 0.00 0.00 0.00 56 1017.3
20260506173820 65 43 0.0 4.0 0.00 0.00 0.00 57 1017.1
20260506173323 64 336 0.0 4.0 0.00 0.00 0.00 58 1017.1
20260506172816 64 0 1.0 4.0 0.00 0.00 0.00 59 1017.1
20260506172318 64 244 1.0 4.0 0.00 0.00 0.00 61 1017.1
20260506172041 64 260 1.0 4.0 0.00 0.00 0.00 61 1017.2
20260506171319 64 254 0.0 5.0 0.00 0.00 0.00 63 1017.2
20260506171038 63 303 0.0 5.0 0.00 0.00 0.00 64 1017.2
20260506170316 62 42 1.0 7.0 0.00 0.00 0.00 66 1017.2
20260506170036 62 266 1.0 7.0 0.00 0.00 0.00 66 1017.3
20260506165317 62 241 0.0 7.0 0.00 0.00 0.00 68 1017.2
20260506164823 62 277 0.0 7.0 0.00 0.00 0.00 70 1017.3
20260506164313 61 281 0.0 4.0 0.00 0.00 0.00 70 1017.2
20260506163814 61 311 1.0 4.0 0.00 0.00 0.00 69 1017.2
20260506163804 62 279 1.0 4.0 0.00 0.00 0.00 67 1017.3
20260506162815 61 9 1.0 4.0 0.00 0.00 0.00 68 1017.3
20260506162313 61 261 0.0 4.0 0.00 0.00 0.00 68 1017.2
20260506161813 61 344 0.0 3.0 0.00 0.00 0.00 67 1017.2
20260506161313 60 13 0.0 3.0 0.00 0.00 0.00 68 1017.1
20260506160813 60 321 0.0 3.0 0.00 0.00 0.00 69 1017.1
20260506160314 60 245 0.0 3.0 0.00 0.00 0.00 70 1017.1
20260506155811 60 13 0.0 3.0 0.00 0.00 0.00 70 1017.1
20260506155311 59 64 0.0 2.0 0.00 0.00 0.00 73 1017.0
20260506154809 59 9 0.0 2.0 0.00 0.00 0.00 74 1017.1
20260506154309 59 343 0.0 2.0 0.00 0.00 0.00 75 1017.1
20260506153810 59 327 0.0 2.0 0.00 0.00 0.00 75 1017.2
20260506153535 59 266 0.0 2.0 0.00 0.00 0.00 75 1017.2
20260506152808 59 271 0.0 0.0 0.00 0.00 0.00 75 1017.2
20260506152309 59 306 0.0 0.0 0.00 0.00 0.00 75 1017.1
20260506151810 59 9 0.0 0.0 0.00 0.00 0.00 76 1017.2
20260506151306 59 0 0.0 0.0 0.00 0.00 0.00 78 1017.1
20260506150805 58 44 0.0 0.0 0.00 0.00 0.00 78 1017.2
20260506150306 58 119 0.0 0.0 0.00 0.00 0.00 79 1017.2
20260506145806 58 74 0.0 0.0 0.00 0.00 0.00 80 1017.2
20260506145306 57 159 0.0 0.0 0.00 0.00 0.00 80 1017.2
20260506144805 57 144 0.0 0.0 0.00 0.00 0.00 81 1017.2
20260506144307 56 171 0.0 0.0 0.00 0.00 0.00 82 1017.2
20260506143805 56 64 0.0 0.0 0.00 0.00 0.00 84 1017.1
20260506143307 56 64 0.0 0.0 0.00 0.00 0.00 84 1017.0
20260506142802 55 43 0.0 0.0 0.00 0.00 0.00 86 1017.1
20260506142300 54 111 0.0 0.0 0.00 0.00 0.00 88 1017.1
20260506142016 54 112 0.0 0.0 0.00 0.00 0.00 88 1017.0
20260506141301 53 112 0.0 0.0 0.00 0.00 0.00 89 1016.9
20260506140803 53 112 0.0 0.0 0.00 0.00 0.00 90 1016.9
20260506140303 53 106 0.0 0.0 0.00 0.00 0.00 91 1016.9
20260506135803 52 111 0.0 0.0 0.00 0.00 0.00 92 1016.9
20260506135306 52 113 0.0 0.0 0.00 0.00 0.00 94 1016.9
20260506134805 51 110 0.0 0.0 0.00 0.00 0.00 95 1016.8
20260506134301 51 111 0.0 0.0 0.00 0.00 0.00 95 1016.8
20260506133759 50 141 0.0 0.0 0.00 0.00 0.00 95 1016.8
20260506133301 50 141 0.0 0.0 0.00 0.00 0.00 95 1016.7
20260506132757 49 141 0.0 0.0 0.00 0.00 0.00 94 1016.6
20260506132258 49 141 0.0 0.0 0.00 0.00 0.00 94 1016.6
20260506131757 49 141 0.0 0.0 0.00 0.00 0.00 94 1016.5
20260506131748 49 141 0.0 0.0 0.00 0.00 0.00 94 1016.6
20260506130758 49 141 0.0 0.0 0.00 0.00 0.00 94 1016.5
20260506130258 49 141 0.0 0.0 0.00 0.00 0.00 93 1016.5
20260506125754 49 141 0.0 0.0 0.00 0.00 0.00 93 1016.5
20260506125516 49 155 0.0 0.0 0.00 0.00 0.00 94 1016.4
20260506125014 49 161 0.0 0.0 0.00 0.00 0.00 94 1016.3
20260506124253 49 237 0.0 0.0 0.00 0.00 0.00 93 1016.3
20260506123754 49 237 0.0 0.0 0.00 0.00 0.00 93 1016.3
20260506123253 49 237 0.0 0.0 0.00 0.00 0.00 93 1016.3
20260506122755 49 237 0.0 0.0 0.00 0.00 0.00 93 1016.3
20260506122739 49 237 0.0 0.0 0.00 0.00 0.00 93 1016.3
20260506122019 49 237 0.0 0.0 0.00 0.00 0.00 93 1016.3
20260506121250 50 237 0.0 0.0 0.00 0.00 0.00 93 1016.2
20260506120749 50 237 0.0 0.0 0.00 0.00 0.00 93 1016.3
20260506120250 50 237 0.0 0.0 0.00 0.00 0.00 93 1016.3
20260506115748 50 237 0.0 0.0 0.00 0.00 0.00 93 1016.3
20260506115249 50 237 0.0 0.0 0.00 0.00 0.00 93 1016.3
20260506115012 50 237 0.0 0.0 0.00 0.00 0.00 93 1016.2
20260506114252 50 237 0.0 0.0 0.00 0.00 0.00 93 1016.2
20260506113748 50 237 0.0 0.0 0.00 0.00 0.00 93 1016.2
20260506113736 50 237 0.0 0.0 0.00 0.00 0.00 93 1016.2
20260506112746 50 237 0.0 0.0 0.00 0.00 0.00 93 1016.2
20260506112509 50 237 0.0 0.0 0.00 0.00 0.00 93 1016.1
20260506111746 50 237 0.0 0.0 0.00 0.01 0.00 92 1016.1
20260506111245 50 237 0.0 0.0 0.00 0.01 0.00 93 1016.1
20260506110746 50 237 0.0 0.0 0.00 0.01 0.00 92 1016.1
20260506110244 50 237 0.0 0.0 0.00 0.02 0.00 93 1016.2
20260506105746 50 237 0.0 0.0 0.00 0.03 0.00 92 1016.1
20260506105506 50 237 0.0 0.0 0.00 0.03 0.00 92 1016.1
20260506104746 50 237 0.0 0.0 0.00 0.03 0.00 92 1016.1
20260506104242 50 237 0.0 0.0 0.00 0.03 0.00 92 1016.2
20260506103741 50 237 0.0 0.0 0.00 0.03 0.00 91 1016.0
20260506103505 50 237 0.0 0.0 0.00 0.03 0.00 92 1016.0
20260506103007 50 237 0.0 0.0 0.00 0.03 0.00 92 1016.1
20260506102240 50 237 0.0 0.0 0.00 0.03 0.00 91 1016.0
20260506102002 50 237 0.0 0.0 0.00 0.04 0.00 91 1016.0
20260506101458 50 237 0.0 0.0 0.00 0.04 0.00 92 1016.0
20260506100741 50 237 0.0 0.0 0.00 0.05 0.00 91 1016.0
20260506100244 50 237 0.0 0.0 0.00 0.05 0.00 91 1015.8
20260506095955 50 237 0.0 0.0 0.00 0.05 0.00 90 1016.0
20260506095459 50 237 0.0 0.0 0.00 0.05 0.00 91 1016.0
20260506094736 50 237 0.0 0.0 0.00 0.06 0.00 91 1016.0
20260506094237 50 237 0.0 0.0 0.00 0.06 0.00 91 1015.9
20260506093738 50 237 0.0 0.0 0.00 0.06 0.00 90 1015.9
20260506093240 50 237 0.0 0.0 0.00 0.06 0.00 90 1015.9
20260506092738 51 237 0.0 0.0 0.00 0.06 0.00 90 1015.9
20260506092236 51 237 0.0 0.0 0.00 0.06 0.00 91 1015.9
20260506091738 51 237 0.0 0.0 0.00 0.06 0.00 91 1016.0
20260506091234 50 237 0.0 0.0 0.00 0.06 0.00 92 1016.0
20260506090733 50 237 0.0 0.0 0.00 0.06 0.00 92 1016.0
20260506090454 50 237 0.0 0.0 0.00 0.06 0.00 92 1016.0
20260506085734 50 237 0.0 0.0 0.00 0.06 0.00 92 1016.0
20260506085234 50 237 0.0 0.0 0.00 0.06 0.00 92 1016.1
20260506084732 50 237 0.0 0.0 0.00 0.06 0.00 91 1016.2
20260506084232 50 237 0.0 0.0 0.00 0.06 0.00 91 1016.3
20260506083734 50 237 0.0 0.0 0.00 0.06 0.00 92 1016.4
20260506083234 50 237 0.0 0.0 0.00 0.06 0.00 91 1016.4
20260506082730 50 237 0.0 0.0 0.00 0.06 0.00 91 1016.4
20260506082451 51 237 0.0 0.0 0.00 0.06 0.00 91 1016.4
20260506081959 51 237 0.0 0.0 0.00 0.06 0.00 91 1016.5
20260506081235 51 237 0.0 0.0 0.00 0.06 0.00 91 1016.4
20260506080728 51 237 0.0 0.0 0.00 0.06 0.00 91 1016.5
20260506080229 51 237 0.0 0.0 0.00 0.06 0.00 91 1016.4
20260506073514 51 237 0.0 0.0 0.00 0.06 0.00 90 1016.7
20260506071726 51 237 0.0 0.0 0.00 0.06 0.00 90 1016.7
20260506071226 51 237 0.0 0.0 0.00 0.06 0.00 90 1016.8
20260506070725 51 237 0.0 0.0 0.00 0.06 0.00 90 1016.8
20260506070222 51 237 0.0 0.0 0.00 0.06 0.00 90 1016.7
20260506062145 52 237 0.0 0.0 0.00 0.06 0.06 88 1016.4
20260506061639 52 237 0.0 0.0 0.00 0.06 0.06 88 1016.4
20260506061355 52 237 0.0 2.0 0.00 0.06 0.06 88 1016.4
20260506060627 52 237 0.0 2.0 0.00 0.06 0.06 88 1016.5
20260506060121 52 237 0.0 2.0 0.00 0.06 0.06 88 1016.5
20260506051021 53 162 0.0 0.0 0.00 0.06 0.06 87 1016.2
20260506050515 53 192 0.0 0.0 0.00 0.06 0.06 86 1016.2
20260506045004 53 192 0.0 0.0 0.00 0.06 0.06 85 1016.0
20260506044503 53 192 0.0 0.0 0.00 0.06 0.06 85 1015.9
20260506044005 53 182 0.0 0.0 0.00 0.06 0.06 85 1015.9
20260506043501 53 182 0.0 0.0 0.00 0.06 0.06 84 1015.8
20260506043001 53 182 0.0 0.0 0.00 0.06 0.06 84 1015.6
20260506042501 53 210 0.0 0.0 0.00 0.06 0.06 84 1015.6
20260506042000 53 210 0.0 0.0 0.00 0.06 0.06 84 1015.6
20260506041459 53 210 0.0 0.0 0.00 0.06 0.06 83 1015.6
20260506040958 53 227 0.0 0.0 0.00 0.06 0.06 83 1015.6
20260506040455 53 227 0.0 0.0 0.00 0.06 0.06 82 1015.6
20260506035953 53 232 0.0 0.0 0.00 0.06 0.06 81 1015.6
20260506035453 54 215 0.0 0.0 0.00 0.06 0.06 80 1015.3
20260506034947 54 215 0.0 0.0 0.00 0.06 0.06 80 1015.3
20260506034449 54 215 0.0 0.0 0.00 0.06 0.06 79 1015.3
20260506033950 54 215 0.0 0.0 0.00 0.06 0.06 79 1015.1
20260506033704 54 218 0.0 0.0 0.00 0.06 0.06 78 1015.0
20260506032945 54 246 0.0 3.0 0.00 0.06 0.06 78 1014.9
20260506032441 54 233 0.0 3.0 0.00 0.06 0.06 77 1014.8
20260506031939 54 233 0.0 3.0 0.00 0.06 0.06 77 1014.7
20260506031438 54 235 0.0 3.0 0.00 0.06 0.06 77 1014.8
20260506030933 55 229 0.0 2.0 0.00 0.06 0.06 77 1014.7
20260506030426 55 248 0.0 4.0 0.00 0.06 0.06 76 1014.6
20260506025920 55 219 0.0 4.0 0.00 0.06 0.06 76 1014.6
20260506025634 55 241 0.0 3.0 0.00 0.06 0.06 76 1014.6
20260506024909 55 236 0.0 6.0 0.00 0.06 0.06 74 1014.5
20260506024624 55 237 1.0 6.0 0.00 0.06 0.06 74 1014.4
20260506023856 55 234 1.0 9.0 0.00 0.06 0.06 73 1014.3
20260506023352 55 217 1.0 9.0 0.00 0.06 0.06 72 1014.3
20260506022844 56 230 1.0 9.0 0.00 0.06 0.06 71 1014.3
20260506022345 56 222 1.0 9.0 0.00 0.06 0.06 70 1014.1
20260506022100 56 223 1.0 6.0 0.00 0.06 0.06 70 1014.1
20260506021340 57 202 1.0 10.0 0.00 0.06 0.06 69 1013.9
20260506020842 57 244 1.0 10.0 0.00 0.06 0.06 69 1013.7
20260506020340 57 221 3.0 10.0 0.00 0.06 0.06 69 1013.8
20260506015839 57 221 3.0 10.0 0.00 0.06 0.06 67 1013.8
20260506015341 58 229 2.0 11.0 0.00 0.06 0.06 66 1013.9
20260506014840 58 227 2.0 11.0 0.00 0.06 0.06 65 1013.8
20260506014341 58 227 3.0 11.0 0.00 0.06 0.06 66 1013.8
20260506013839 58 211 5.0 12.0 0.00 0.06 0.06 65 1013.4
20260506013337 59 181 4.0 12.0 0.00 0.06 0.06 65 1013.4
20260506012839 59 236 3.0 11.0 0.00 0.06 0.06 64 1013.3
20260506012337 59 244 4.0 12.0 0.00 0.06 0.06 64 1013.3
20260506011839 59 197 4.0 12.0 0.00 0.06 0.06 63 1013.3
20260506011338 59 254 4.0 14.0 0.00 0.06 0.06 63 1013.3
20260506010835 58 262 4.0 14.0 0.00 0.06 0.06 64 1013.4
20260506010337 59 282 4.0 14.0 0.00 0.06 0.06 64 1013.3
20260506005836 59 217 4.0 15.0 0.00 0.06 0.06 66 1013.2
20260506005330 59 281 5.0 15.0 0.00 0.06 0.06 66 1013.2
20260506004824 59 231 6.0 15.0 0.00 0.06 0.06 66 1013.1
20260506004317 59 200 7.0 15.0 0.00 0.06 0.06 64 1013.0
20260506003812 60 202 7.0 15.0 0.00 0.06 0.06 63 1012.9
20260506003306 60 236 6.0 15.0 0.00 0.06 0.06 63 1013.1
20260506002800 60 187 6.0 15.0 0.00 0.06 0.06 63 1013.1
20260506002254 60 252 7.0 15.0 0.00 0.06 0.06 62 1013.2
20260506001748 59 251 7.0 16.0 0.00 0.06 0.06 63 1013.0
20260506001508 59 292 7.0 16.0 0.00 0.06 0.06 63 1013.0
20260506000736 59 261 7.0 16.0 0.00 0.06 0.06 64 1013.0
20260506000230 60 240 7.0 16.0 0.00 0.06 0.06 62 1013.2
20260505235723 60 245 6.0 14.0 0.00 0.06 0.06 63 1013.0
20260505235218 60 235 4.0 14.0 0.00 0.06 0.06 62 1013.0
20260505234711 61 244 5.0 15.0 0.00 0.06 0.06 63 1012.9
20260505234205 61 201 5.0 15.0 0.00 0.06 0.06 61 1012.9
20260505233701 61 180 5.0 15.0 0.00 0.06 0.06 61 1012.9
20260505233153 61 236 5.0 17.0 0.00 0.06 0.06 63 1013.0
20260505232648 61 248 4.0 17.0 0.00 0.06 0.06 61 1012.9
20260505232142 61 215 5.0 17.0 0.00 0.06 0.06 62 1012.9
20260505231636 62 200 6.0 17.0 0.00 0.06 0.06 61 1012.9
20260505231130 62 194 4.0 17.0 0.00 0.06 0.06 58 1012.9
20260505230624 62 200 4.0 17.0 0.00 0.06 0.06 60 1013.0
20260505230117 62 245 7.0 18.0 0.00 0.06 0.06 61 1012.9
20260505225612 62 246 5.0 18.0 0.00 0.06 0.06 59 1013.0
20260505225107 62 228 5.0 18.0 0.00 0.06 0.06 56 1013.0
20260505224559 63 132 6.0 18.0 0.00 0.06 0.06 55 1013.1
20260505224317 64 243 4.0 16.0 0.00 0.06 0.06 53 1013.2
20260505223547 64 197 4.0 16.0 0.00 0.06 0.06 53 1013.2
20260505223534 63 224 5.0 16.0 0.00 0.06 0.06 53 1013.3
20260505222536 63 253 4.0 16.0 0.00 0.06 0.06 55 1013.2
20260505222029 62 174 4.0 15.0 0.00 0.06 0.06 55 1013.3
20260505221524 61 248 6.0 14.0 0.00 0.06 0.06 55 1013.2
20260505221018 61 220 7.0 14.0 0.00 0.06 0.06 56 1013.3
20260505220512 61 231 5.0 14.0 0.00 0.06 0.06 56 1013.1
20260505220226 61 223 4.0 13.0 0.00 0.06 0.06 57 1013.3
20260505215500 61 202 4.0 15.0 0.00 0.06 0.06 56 1013.2
20260505214954 61 241 3.0 15.0 0.00 0.06 0.06 55 1013.3
20260505214937 62 212 3.0 16.0 0.00 0.06 0.06 55 1013.4
20260505213941 63 257 4.0 16.0 0.00 0.06 0.06 54 1013.6
20260505213656 63 219 5.0 14.0 0.00 0.06 0.06 58 1013.7
20260505212929 62 185 5.0 12.0 0.00 0.06 0.06 58 1013.8
20260505212423 63 232 5.0 12.0 0.00 0.06 0.06 57 1013.9
20260505211917 63 233 6.0 13.0 0.00 0.06 0.06 59 1013.9
20260505211411 62 209 6.0 13.0 0.00 0.06 0.06 62 1013.9
20260505210906 63 209 4.0 17.0 0.00 0.06 0.06 57 1013.9
20260505210401 63 253 3.0 17.0 0.00 0.06 0.06 60 1013.9
20260505205855 62 243 6.0 17.0 0.00 0.06 0.06 62 1014.0
20260505205347 62 192 7.0 19.0 0.00 0.06 0.06 59 1014.0
20260505204849 62 244 5.0 19.0 0.00 0.06 0.06 56 1013.9
20260505204343 62 246 6.0 19.0 0.00 0.06 0.06 59 1014.0
20260505203843 62 230 5.0 19.0 0.00 0.06 0.06 56 1014.0
20260505203344 62 238 4.0 13.0 0.00 0.06 0.06 60 1014.0
20260505202841 61 281 5.0 12.0 0.00 0.06 0.06 58 1014.0
20260505202343 61 258 5.0 13.0 0.00 0.06 0.06 55 1014.0
20260505201842 60 247 5.0 13.0 0.00 0.06 0.06 59 1014.1
20260505201343 60 232 5.0 13.0 0.00 0.06 0.06 63 1014.0
20260505201106 59 226 5.0 13.0 0.00 0.06 0.06 62 1014.2
20260505200341 59 238 4.0 12.0 0.00 0.06 0.06 61 1014.2
20260505200110 59 248 4.0 14.0 0.00 0.06 0.06 61 1014.3
20260505195343 59 248 5.0 14.0 0.00 0.06 0.06 63 1014.3
20260505195101 58 259 6.0 14.0 0.00 0.06 0.06 65 1014.3
20260505194342 59 219 6.0 14.0 0.00 0.06 0.06 65 1014.3
20260505193843 59 240 5.0 12.0 0.00 0.06 0.06 65 1014.3
20260505193341 59 217 5.0 12.0 0.00 0.06 0.06 64 1014.4
20260505192845 59 259 3.0 12.0 0.00 0.06 0.06 63 1014.3
20260505192340 59 259 3.0 11.0 0.00 0.06 0.06 63 1014.3
20260505191835 59 180 3.0 12.0 0.00 0.06 0.06 65 1014.4
20260505191325 59 231 3.0 12.0 0.00 0.06 0.06 64 1014.4
20260505191042 60 285 5.0 12.0 0.00 0.06 0.06 64 1014.4
20260505190314 59 257 5.0 12.0 0.00 0.06 0.06 67 1014.5
20260505185808 60 219 3.0 11.0 0.00 0.06 0.06 63 1014.5
20260505185305 60 235 3.0 11.0 0.00 0.06 0.06 64 1014.5
20260505184755 60 174 3.0 11.0 0.00 0.06 0.06 65 1014.4
20260505184250 60 267 2.0 9.0 0.00 0.06 0.06 63 1014.4